www.pogodaiklimat.ru

Погода и климат >> Архив погоды >> Великобритания >> Уик


ПОГОДА в Уике

  • Прогноз погоды в Уике
  • Монитор погоды в Уике

АРХИВ ПОГОДЫ в Уике

Время (UTC), дата Ветер
(напр.,м/с)
 
Видим.   Явления Облачность Т
(С)
Тd
(С)
f
(%)
Тe
(С)
Тes
(С)
Комфортность P
(гПа)
Po
(гПа)
Тmin
(С)
Tmax
(С)
R
(мм)
R24
(мм)
S
(см)
19 9.09 Ю 5 30 км в посл. час дождь н/о +13.1 +11.7 91 +11 +11 1011.6 1007.2
20 9.09 Ю 3 23 км н/о +12.7 +12.2 97 +11 +11 1012.4 1008.1
21 9.09 З 3 3200 м дымка н/о +12.5 +12.1 97 +11 +11 1012.8 1008.5
22 9.09 З 8 5000 м в посл. час дождь н/о +11.2 +11.1 99 +7 +7 1013.4 1009.1
23 9.09 З 7 13 км н/о +10.5 +10.4 99 +7 +7 1013.9 1009.5
00 10.09 З 6 35 км н/о +10.4 +10.3 99 +7 +7 1014.1 1009.7 0.4
01 10.09 З 4 45 км н/о +10.5 +10.2 98 +8 +8 1014.4 1010.1
02 10.09 З 4 30 км н/о +10.4 +10.1 98 +8 +8 1014.8 1010.5
03 10.09 З 3 30 км н/о +10.5 +10.0 97 +8 +8 1015.0 1010.6
04 10.09 З 4 25 км н/о +9.5 +9.0 97 +6 +6 1015.1 1010.7
05 10.09 З 4 22 км н/о +7.5 +7.2 98 +4 +4 1015.4 1011.0
06 10.09 З 5 22 км н/о +6.7 +6.5 99 +2 +2 1015.4 1010.9 +6.7 0.4
07 10.09 З 3 22 км н/о +7.7 +7.5 99 +5 +5 1015.6 1011.2
08 10.09 З 3 35 км н/о +10.4 +9.7 95 +8 +8 1015.8 1011.4
09 10.09 ЮЗ 4 23 км н/о +12.6 +9.1 79 +11 +11 1015.8 1011.5
10 10.09 ЮЗ 3 30 км н/о +13.5 +9.2 75 +13 +13 1014.8 1010.4
11 10.09 Ю 5 21 км н/о +13.6 +8.6 72 +12 +12 1014.1 1009.8
12 10.09 Ю 7 18 км н/о +13.4 +8.0 70 +11 +11 1013.8 1009.5
13 10.09 Ю 6 30 км н/о +13.2 +7.8 70 +11 +11 1012.9 1008.6
14 10.09 Ю 7 30 км н/о +13.5 +8.6 72 +11 +11 1011.5 1007.2
15 10.09 ЮВ 6 45 км н/о +13.6 +9.4 76 +11 +11 1010.2 1005.9
16 10.09 ЮВ 6 40 км н/о +13.0 +9.6 80 +11 +11 1009.1 1004.8
17 10.09 ЮВ 5 35 км н/о +13.3 +9.3 77 +11 +11 1007.1 1002.8
18 10.09 Ю 8
{13}
27 км н/о +13.6 +8.7 72 +11 +11 1005.0 1000.7 +14.3
19 10.09 Ю 9
{14}
7000 м ливневой дождь н/о +12.3 +10.0 86 +9 +9 1003.7 999.4
20 10.09 Ю 10-15
{15}
8000 м дождь н/о +11.5 +10.5 94 +8 +8 1002.1 997.8
21 10.09 Ю 10-16
{17}
22 км в посл. час дождь н/о +12.3 +10.8 91 +9 +9 1000.2 995.9
22 10.09 Ю 9
{15}
17 км н/о +12.4 +11.0 91 +9 +9 999.3 995.0
23 10.09 ЮВ 7
{14}
19 км н/о +12.8 +11.3 91 +10 +10 998.5 994.2
00 11.09 Ю 11-16
{17}
50 км н/о +13.6 +11.6 88 +10 +10 997.3 993.0 6
01 11.09 Ю 9
{13}
40 км н/о +13.8 +12.0 89 +11 +11 997.4 993.2
02 11.09 Ю 8
{13}
30 км н/о +13.5 +12.4 93 +11 +11 997.3 993.0
03 11.09 ЮЗ 12-18
{18}
6000 м дым н/о +13.6 +12.1 91 +10 +10 997.3 993.0
04 11.09 Ю 3
{13}
45 км н/о +12.5 +10.4 87 +11 +11 997.6 993.4
05 11.09 ЮЗ 6 50 км н/о +12.4 +10.1 86 +10 +10 997.9 993.6
06 11.09 ЮЗ 8 26 км н/о +12.2 +10.0 86 +9 +9 998.4 994.1 +11.4 6
07 11.09 Ю 4 35 км в посл. час дождь н/о +12.1 +10.1 88 +10 +10 999.0 994.7
08 11.09 ЮЗ 7 14 км н/о +13.4 +10.4 82 +11 +11 999.7 995.4
09 11.09 ЮЗ 7
{13}
22 км н/о +12.6 +11.3 92 +10 +10 1000.6 996.3
10 11.09 ЮЗ 10
{14}
19 км н/о +14.5 +10.2 75 +12 +12 1001.4 997.1
11 11.09 ЮЗ 10
{14}
30 км н/о +15.3 +9.0 66 +13 +13 1001.9 997.7
12 11.09 ЮЗ 11-16
{16}
21 км н/о +15.6 +10.5 72 +13 +13 1002.6 998.3 0.2
13 11.09 З 10
{16}
26 км н/о +15.8 +10.9 73 +14 +14 1003.4 999.1
14 11.09 ЮЗ 9
{16}
29 км н/о +15.4 +10.8 74 +13 +13 1004.2 999.9
15 11.09 З 10
{15}
15 км в посл. час дождь н/о +14.0 +10.8 81 +11 +11 1005.5 1001.2
16 11.09 З 7 35 км н/о +14.1 +10.2 77 +12 +12 1006.2 1001.9
17 11.09 З 10
{15}
30 км н/о +14.5 +9.4 71 +12 +12 1006.6 1002.3
18 11.09 ЮЗ 10
{14}
30 км н/о +14.2 +9.6 74 +11 +11 1007.1 1002.8 +16.2 0.2
19 11.09 ЮЗ 6
{13}
45 км н/о +13.3 +9.8 79 +11 +11 1008.6 1004.3
20 11.09 ЮЗ 6 50 км н/о +12.6 +9.9 84 +10 +10 1009.3 1004.9
21 11.09 ЮЗ 5 40 км н/о +12.3 +9.2 81 +10 +10 1010.2 1005.9
22 11.09 ЮЗ 9 45 км н/о +12.3 +8.9 80 +9 +9 1010.0 1005.7
23 11.09 Ю 3 45 км н/о +11.7 +9.0 83 +10 +10 1011.1 1006.8
00 12.09 ЮЗ 6 45 км н/о +11.1 +9.4 89 +8 +8 1011.3 1007.0
01 12.09 ЮЗ 5 35 км в посл. час дождь н/о +11.5 +9.3 86 +9 +9 1012.0 1007.6
02 12.09 ЮЗ 5 40 км н/о +11.7 +9.3 85 +9 +9 1012.2 1007.8
03 12.09 ЮЗ 7 45 км н/о +11.6 +9.0 84 +8 +8 1011.9 1007.5
04 12.09 ЮЗ 6 45 км н/о +11.2 +8.7 85 +8 +8 1012.1 1007.8
05 12.09 ЮЗ 6 45 км н/о +11.8 +8.4 80 +9 +9 1012.2 1007.9
06 12.09 ЮЗ 5 45 км н/о +11.2 +9.0 86 +9 +9 1012.5 1008.1 +10.7 0.0
07 12.09 ЮЗ 6 45 км н/о +11.6 +8.6 82 +9 +9 1013.2 1008.8
08 12.09 ЮЗ 6 40 км н/о +12.1 +8.3 78 +10 +10 1013.1 1008.7
09 12.09 ЮЗ 6 45 км в посл. час туман н/о +12.6 +8.6 77 +10 +10 1013.8 1009.4
10 12.09 ЮЗ 7 40 км в посл. час дождь н/о +12.4 +9.9 85 +9 +9 1014.1 1009.7
11 12.09 ЮЗ 9 4900 м дым н/о +13.4 +9.7 78 +11 +11 1014.3 1009.9
12 12.09 З 8
{13}
50 км н/о +13.9 +9.6 75 +11 +11 1014.7 1010.4 0.0
13 12.09 З 9 45 км н/о +13.7 +8.4 70 +11 +11 1015.4 1011.1
14 12.09 З 9
{16}
40 км н/о +14.5 +8.2 66 +12 +12 1015.9 1011.6
15 12.09 З 10
{13}
23 км слаб. ливневой дождь н/о +11.9 +10.4 91 +8 +8 1016.8 1012.5
16 12.09 З 8 35 км в посл. час дождь н/о +13.1 +9.5 79 +10 +10 1017.3 1013.0
17 12.09 З 10
{14}
18 км н/о +12.3 +8.3 77 +9 +9 1018.2 1013.8
18 12.09 З 8 29 км н/о +11.6 +8.1 79 +8 +8 1018.8 1014.4 +15.0 0.4
19 12.09 З 6 24 км н/о +10.0 +7.5 84 +6 +6 1019.8 1015.4
20 12.09 З 4 23 км н/о +9.0 +7.1 88 +6 +6 1020.8 1016.4
21 12.09 ЮЗ 4 28 км н/о +7.9 +6.1 88 +4 +4 1021.3 1016.8
22 12.09 З 6 30 км н/о +8.9 +6.9 87 +5 +5 1021.7 1017.2
23 12.09 ЮЗ 7 35 км н/о +9.4 +6.4 82 +6 +6 1022.0 1017.5
00 13.09 ЮЗ 7 18 км н/о +10.0 +7.0 82 +6 +6 1022.8 1018.4
01 13.09 ЮЗ 4 40 км в посл. час дождь н/о +8.4 +6.6 88 +5 +5 1023.5 1019.0
02 13.09 З 6 40 км н/о +8.9 +7.0 88 +5 +5 1023.8 1019.3
03 13.09 ЮЗ 5 35 км н/о +8.0 +6.3 89 +4 +4 1024.2 1019.7
04 13.09 ЮЗ 6 30 км н/о +7.8 +6.0 88 +3 +3 1024.4 1019.9
05 13.09 ЮЗ 6 30 км н/о +8.6 +6.3 85 +5 +5 1024.8 1020.4
06 13.09 З 8 30 км н/о +9.6 +6.2 79 +6 +6 1025.2 1020.7 +7.3 0.0
07 13.09 ЮЗ 8 30 км н/о +10.4 +6.6 77 +7 +7 1026.0 1021.6
08 13.09 ЮЗ 7 27 км н/о +12.2 +7.5 73 +9 +9 1026.7 1022.3
09 13.09 ЮЗ 8
{13}
26 км н/о +13.1 +7.9 71 +10 +10 1027.1 1022.7
10 13.09 З 9
{15}
18 км н/о +13.7 +7.5 66 +11 +11 1027.8 1023.4
11 13.09 З 9
{14}
25 км н/о +14.5 +8.7 68 +12 +12 1027.8 1023.4
12 13.09 З 9
{15}
35 км в посл. час дождь н/о +11.4 +9.3 87 +8 +8 1028.7 1024.2 1
13 13.09 З 9
{13}
19 км н/о +14.1 +9.6 74 +11 +11 1029.1 1024.8
14 13.09 З 8
{13}
21 км в посл. час дождь н/о +14.4 +9.1 70 +12 +12 1028.9 1024.6
15 13.09 ЮЗ 9
{16}
25 км н/о +14.9 +8.8 67 +13 +13 1028.9 1024.6
16 13.09 З 10
{15}
18 км н/о +13.2 +8.8 75 +10 +10 1029.2 1024.7
17 13.09 З 7 26 км н/о +13.3 +8.8 74 +11 +11 1029.4 1025.0
18 13.09 ЮЗ 7 24 км н/о +12.7 +8.3 75 +10 +10 1029.7 1025.3 +15.6 1
19 13.09 ЮЗ 7 26 км в посл. час дождь н/о +11.4 +9.4 88 +8 +8 1030.0 1025.6
20 13.09 ЮЗ 4 21 км в посл. час дождь н/о +10.9 +9.8 93 +9 +9 1029.8 1025.4
21 13.09 ЮЗ 6 21 км н/о +11.5 +9.0 85 +9 +9 1029.6 1025.1
22 13.09 ЮЗ 6 28 км слаб. ливневой дождь н/о +11.3 +9.3 87 +8 +8 1029.6 1025.2
23 13.09 ЮЗ 6 21 км в посл. час дождь н/о +11.5 +9.0 85 +8 +8 1029.4 1024.9
00 14.09 ЮЗ 6 40 км в посл. час дождь н/о +11.4 +9.0 85 +8 +8 1029.0 1024.6 0.2
01 14.09 ЮЗ 6 35 км н/о +11.6 +8.6 82 +9 +9 1028.6 1024.2
02 14.09 Ю 6 30 км н/о +11.3 +9.2 87 +8 +8 1027.4 1023.0
03 14.09 ЮЗ 5 30 км н/о +11.4 +8.8 84 +9 +9 1026.4 1021.9
04 14.09 Ю 5 30 км в посл. час дождь н/о +11.3 +8.9 85 +9 +9 1025.0 1020.6
05 14.09 Ю 5 40 км н/о +11.5 +9.1 85 +9 +9 1023.9 1019.5
06 14.09 Ю 7 13 км слаб. морось с дождем н/о +11.6 +9.2 85 +8 +8 1022.5 1018.1 +10.9 0.4
07 14.09 Ю 6 13 км слаб. ливневой дождь н/о +12.0 +9.3 84 +9 +9 1020.8 1016.4
08 14.09 Ю 9-15
{15}
18 км в посл. час дождь н/о +12.2 +9.1 81 +9 +9 1019.4 1015.1
09 14.09 Ю 11-17
{17}
30 км в посл. час дождь н/о +12.1 +9.4 84 +8 +8 1017.5 1013.1
10 14.09 Ю 14
{19}
35 км н/о +13.0 +9.8 81 +9 +9 1015.9 1011.5
11 14.09 Ю 13
{20}
19 км н/о +13.3 +10.6 84 +10 +10 1014.0 1009.7
12 14.09 Ю 11
{18}
26 км н/о +13.7 +11.4 86 +10 +10 1013.2 1008.9 1
13 14.09 Ю 11
{18}
12 км н/о +14.2 +11.9 86 +11 +11 1012.8 1008.5
14 14.09 ЮЗ 9
{15}
22 км н/о +14.3 +12.8 91 +12 +12 1011.6 1007.3
15 14.09 ЮЗ 10
{15}
22 км н/о +14.9 +12.6 86 +12 +12 1010.4 1006.1
16 14.09 ЮЗ 9-19
{19}
30 км н/о +15.1 +13.3 89 +13 +13 1010.0 1005.7
17 14.09 З 13-18
{18}
40 км н/о +15.3 +11.7 79 +13 +13 1009.7 1005.4
18 14.09 З 9
{17}
13 км в посл. час дождь н/о +12.5 +10.9 90 +9 +9 1010.4 1006.0 +16.1 2
19 14.09 З 8
{14}
22 км н/о +13.0 +10.0 82 +10 +10 1010.3 1005.9
20 14.09 З 10
{15}
14 км н/о +12.4 +8.9 79 +9 +9 1010.1 1005.8
21 14.09 ЮЗ 10
{17}
14 км н/о +11.6 +6.9 73 +8 +8 1010.4 1006.0
22 14.09 ЮЗ 9
{14}
17 км н/о +11.6 +6.9 73 +8 +8 1010.3 1006.0
23 14.09 З 9
{16}
19 км н/о +10.8 +6.5 75 +7 +7 1010.2 1005.8
00 15.09 З 7
{13}
15 км н/о +10.2 +6.0 75 +7 +7 1010.5 1006.2
01 15.09 З 7
{13}
19 км н/о +10.0 +5.2 72 +6 +6 1010.8 1006.4
02 15.09 З 14-22
{22}
15 км н/о +9.9 +2.7 61 +5 +5 1010.4 1006.1
03 15.09 З 12-17
{21}
17 км н/о +9.4 +3.3 66 +4 +4 1010.7 1006.3
04 15.09 З 13-19
{22}
14 км н/о +9.5 +3.5 66 +5 +5 1010.5 1006.1
05 15.09 З 14-20
{21}
11 км н/о +9.9 +4.9 71 +5 +5 1010.7 1006.3
06 15.09 З 15-21
{21}
11 км н/о +9.8 +4.9 72 +5 +5 1011.3 1006.9 +9.4
07 15.09 З 13-20
{22}
15 км н/о +10.0 +4.0 66 +5 +5 1012.2 1007.8
08 15.09 З 12
{19}
10 км н/о +10.7 +5.0 68 +6 +6 1013.8 1009.4
09 15.09 З 12-18
{19}
11 км н/о +11.2 +5.6 68 +7 +7 1014.2 1009.8
10 15.09 З 13-19
{20}
10 км дым н/о +11.9 +5.9 67 +8 +8 1015.0 1010.6
11 15.09 З 15-23
{23}
13 км н/о +11.8 +6.2 69 +7 +7 1015.9 1011.5
12 15.09 З 14
{21}
14 км н/о +11.9 +5.1 63 +8 +8 1016.7 1012.4
13 15.09 З 11
{19}
12 км н/о +11.9 +5.5 65 +8 +8 1017.9 1013.5
14 15.09 З 11
{16}
14 км н/о +11.9 +4.5 60 +8 +8 1017.9 1013.5
15 15.09 З 11
{15}
16 км н/о +12.2 +5.7 64 +9 +9 1018.0 1013.6
16 15.09 З 12
{15}
22 км н/о +12.0 +4.9 62 +8 +8 1017.7 1013.4
17 15.09 З 7
{17}
19 км н/о +10.4 +4.9 69 +7 +7 1018.3 1013.9
18 15.09 З 4 15 км н/о +9.6 +6.3 80 +7 +7 1018.5 1014.1 +13.5
19 15.09 З 6 14 км слаб. ливневой дождь н/о +9.1 +6.6 84 +5 +5 1018.7 1014.3
20 15.09 З 6 22 км в посл. час дождь н/о +8.5 +6.3 86 +5 +5 1018.9 1014.5
21 15.09 Ю 4 35 км в посл. час дождь н/о +8.2 +5.7 84 +5 +5 1019.0 1014.5
22 15.09 ЮЗ 4 30 км н/о +7.8 +5.6 86 +4 +4 1018.9 1014.5
23 15.09 ЮЗ 4 30 км н/о +8.2 +6.2 87 +5 +5 1018.7 1014.3
00 16.09 З 3 35 км н/о +7.9 +6.2 89 +5 +5 1018.4 1014.0 0.0
01 16.09 ЮЗ 5 30 км н/о +7.6 +5.7 88 +4 +4 1017.9 1013.5
02 16.09 З 4 45 км н/о +7.6 +5.0 84 +4 +4 1018.1 1013.7
03 16.09 ЮЗ 4 40 км н/о +7.5 +5.6 88 +4 +4 1017.8 1013.3
04 16.09 ЮЗ 4 35 км н/о +8.2 +5.8 85 +5 +5 1017.3 1012.9
05 16.09 ЮЗ 6 45 км н/о +8.8 +6.1 83 +5 +5 1016.6 1012.1
06 16.09 З 6 40 км н/о +8.8 +6.3 84 +5 +5 1016.5 1012.1 +6.8 0.0
07 16.09 З 8 45 км н/о +9.0 +6.9 87 +5 +5 1016.6 1012.2
08 16.09 З 7 35 км н/о +10.4 +8.3 87 +7 +7 1016.6 1012.2
09 16.09 З 8
{13}
26 км н/о +10.6 +8.4 86 +7 +7 1016.6 1012.2
10 16.09 З 11
{15}
29 км н/о +12.1 +7.6 74 +8 +8 1016.4 1012.0
11 16.09 З 9
{13}
28 км в посл. час дождь н/о +12.4 +7.4 72 +9 +9 1016.6 1012.3
12 16.09 З 7
{16}
18 км в посл. час дождь н/о +11.4 +10.6 95 +8 +8 1016.9 1012.5 0.8
13 16.09 З 9
{15}
17 км н/о +11.9 +9.0 82 +8 +8 1016.8 1012.4
14 16.09 З 9
{13}
27 км н/о +11.4 +7.7 78 +8 +8 1016.8 1012.4
15 16.09 З 10
{17}
29 км н/о +11.5 +6.8 73 +8 +8 1017.0 1012.6
16 16.09 З 10
{15}
20 км н/о +11.1 +5.8 70 +7 +7 1017.3 1012.9
17 16.09 З 6
{15}
27 км в посл. час дождь н/о +8.7 +6.7 87 +5 +5 1017.6 1013.2
18 16.09 З 7 17 км н/о +8.8 +5.2 78 +5 +5 1017.5 1013.1 +13.1 1
19 16.09 З 6 40 км н/о +7.3 +4.3 81 +3 +3 1017.7 1013.2

 

Местоположение метеостанции Уик (Великобритания): широта 58.45 долгота -3.08 высота над уровнем моря 36 м.

В архиве по умолчанию представлена погода в Уике за последнюю неделю. Архивные данные за месяц целиком и за предыдущие месяцы, начиная с января 2011 года, Вы можете получить, выбрав интересующий диапазон дат из раскрывающегося списка и нажав кнопку "Ввод!".


*Определитесь, кто Вы:
робот инопланетянин человек

Внимание! Время в таблицах - всемирное. Для получения местного времени необходимо прибавить поправку, которая равна 0 ч.

Смотрите также архив погоды в соседних городах и на ближайших метеорологических станциях:

Погода в Керкуолле (Великобритания) (57 км)
Погода на Алтнахарре (Великобритания) (81 км)
Погода в Лоссимуте (Великобритания) (82 км)
Погода в Тейн-Рендже (Великобритания) (87 км)
Погода в Кинлоссе (Великобритания) (94 км)
Погода на Сул-Скерри (Великобритания) (103 км)
Погода на Озере Гласкарнок (Великобритания) (133 км)
Погода на Авморе (Великобритания) (146 км)
Погода на Фэр-Айл (Великобритания) (146 км)
Погода в Абердине (Великобритания) (148 км)

Пояснения к столбцам:

Ветер - указаны скорость ветра в м/с - средняя за 10 мин, порывы в срок и между сроками (в фигурных скобках) и направление, откуда дует ветер: С - северный, СВ - северо-восточный, В - восточный, ЮВ - юго-восточный, Ю - южный, ЮЗ - юго-западный, З - западный, СЗ - северо-западный.
Видимость - горизонтальная дальность видимости в метрах или километрах. При видимости от 1 до 10 км при отсутствии осадков обычно наблюдается дымка, при ухудшении видимости до 1 км и менее - туман. В сухую погоду видимость может ухудшаться дымом, пылью или мглою.
Явления - указаны атмосферные явления, наблюдавшиеся в срок или в последний час перед сроком; фигурными скобками обозначены явления, наблюдавшиеся между сроками (за 1-3 часа до срока); квадратными скобками обозначены град или гололедные отложения с указанием их диаметра в мм.
Облачность - указаны через наклонную черту общая и нижняя облачность в баллах и высота нижней границы облаков в метрах; квадратными скобками обозначены формы облаков: Ci - перистые, Cs - перисто-слоистые, Cc - перисто-кучевые, Ac - высококучевые, As - высокослоистые, Sc - слоисто-кучевые, Ns - слоисто-дождевые, Cu - кучевые, Cb - кучево-дождевые. Подробнее классификацию облаков см. в Атласе облаков (PDF).
T - Температура воздуха - температура, измеренная на высоте 2 м над землей.
Td - Температура точки росы - температура, при понижении до которой содержащийся в воздухе водяной пар достигнет насыщения.
f - Относительная влажность воздуха - влажноcть воздуха, измеренная на высоте 2 м над землей.
Te - Эффективная температура - температура, которую ощущает одетый по сезону человек в тени. Характеристика душности погоды. При расчете учитывается влияние влажности воздуха и скорости ветра на теплоощущения человека.
Tes - Эффективная температура на солнце - температура, которую ощущает человек, с поправкой на солнечный нагрев. Характеристика знойности погоды. Зависит от высоты солнца над горизонтом, облачности и скорости ветра. Ночью, в пасмурную погоду, а также при ветре 12 м/с и более поправка равна нулю.
P - Атмосферное давление - приведенное к уровню моря атмосферное давление.
Po - Атмосферное давление - измеренное на уровне метеостанции атмосферное давление.
Tmin - Минимальная температура - минимум температуры воздуха на высоте 2 м над землей.
Tmax - Максимальная температура - максимум температуры воздуха на высоте 2 м над землей.
R - Количество осадков - Количество выпавших осадков за период времени, мм. При наведении курсора мыши на число - период времени, за который выпало указанное количество осадков.
R24 - Количество осадков - Количество выпавших осадков за 24 часа, мм.
S - Снежный покров - Высота снежного покрова, см. При наведении курсора мыши на число - состояние снежного покрова и степень покрытия местности в баллах.